Regional Weather Roundup
Issued by NWS

Home | Current Version | Previous Version | Text Only | Print | Product List | Glossary Off
Versions: 1 2 3 4 5 6 7 8 9 10 11 12 13 14 15 16 17 18 19 20 21 22 23 24 25 26 27 28 29 30 31 32 33 34 35 36 37 38 39 40 41 42 43 44 45 46 47 48 49 50

000
ASUS45 KBOI 220510
RWRID
WEATHER ROUNDUP FOR IDAHO
NATIONAL WEATHER SERVICE BOISE ID
1100 PM MDT THU AUG 21 2014

NOTE: "FAIR" INDICATES FEW OR NO CLOUDS BELOW 12000 FEET
WITH NO SIGNIFICANT WEATHER AND/OR OBSTRUCTIONS TO VISIBILITY

IDZ012-014-220600-
SOUTHWEST IDAHO


CITY           SKY/WX    TMP DP  RH WIND       PRES   REMARKS
BOISE          PTCLDY    70  31  23 SE10      29.89S
CALDWELL       PTCLDY    66  41  39 S5        29.88F
MOUNTAIN HOME  PTCLDY    69  53  55 E15       29.91S
$$

IDZ016-017-220600-
SOUTHCENTRAL IDAHO


CITY           SKY/WX    TMP DP  RH WIND       PRES   REMARKS
BURLEY         CLOUDY    62  51  67 W3        30.02R
JEROME         CLOUDY    60  54  80 NE12      29.99F
TWIN FALLS     CLOUDY    65  52  62 VRB3      29.98F
$$

IDZ019>023-220600-
SOUTHEAST IDAHO


CITY           SKY/WX    TMP DP  RH WIND       PRES   REMARKS
IDAHO FALLS    LGT RAIN  56  53  90 E12       30.12F
POCATELLO      CLEAR     59  52  77 E16       30.07F
REXBURG        RAIN      54  52  93 E10       30.13F
$$

IDZ006-010-011-018-031-032-220600-
CENTRAL IDAHO MOUNTAINS


CITY           SKY/WX    TMP DP  RH WIND       PRES   REMARKS
MCCALL         PTCLDY    54  37  52 NE3       29.99S
HAILEY         PTCLDY    57  54  88 CALM      30.10R
STANLEY          N/A     50  39  66 CALM      30.10S
SALMON         CLOUDY    61  52  72 N6        30.01R
CHALLIS        MOCLDY    59  48  67 N5        30.01S
$$

IDZ002-004-006-007-026-220600-
NORTHERN IDAHO


CITY           SKY/WX    TMP DP  RH WIND       PRES   REMARKS
LEWISTON       MOCLDY    74  44  34 W7        29.85S
LOWELL         NOT AVBL
COEUR D`ALENE  CLOUDY    59  52  77 N14       29.95F
MULLAN PASS    MOCLDY    49  44  83 VRB6      30.09S
$$



USA.gov is the U.S. government's official web portal to all federal, state and local government web resources and services.